TimeAKDT,TemperatureF,Dew PointF,Humidity,Sea Level PressureIn,VisibilityMPH,Wind Direction,Wind SpeedMPH,Gust SpeedMPH,PrecipitationIn,Events,Conditions,WindDirDegrees,DateUTC
12:53 AM,54.0,41.0,62,29.77,10.0,SE,8.1,-,N/A,,Overcast,130,2013-06-23 08:53:00
1:53 AM,53.1,42.1,66,29.76,10.0,SE,6.9,-,0.00,,Overcast,130,2013-06-23 09:53:00
2:53 AM,53.1,42.1,66,29.75,10.0,East,4.6,-,N/A,,Mostly Cloudy,90,2013-06-23 10:53:00
3:39 AM,53.6,42.8,67,29.74,10.0,Calm,Calm,-,0.00,,Overcast,0,2013-06-23 11:39:00
3:53 AM,51.1,43.0,74,29.75,10.0,Calm,Calm,-,0.00,,Overcast,0,2013-06-23 11:53:00
4:53 AM,50.0,44.1,80,29.73,10.0,Calm,Calm,-,0.00,,Overcast,0,2013-06-23 12:53:00
5:53 AM,53.1,42.1,66,29.72,10.0,Calm,Calm,-,N/A,,Overcast,0,2013-06-23 13:53:00
6:53 AM,53.1,42.1,66,29.72,10.0,Calm,Calm,-,N/A,,Overcast,0,2013-06-23 14:53:00
7:53 AM,53.1,43.0,69,29.71,10.0,Calm,Calm,-,N/A,,Overcast,0,2013-06-23 15:53:00
8:53 AM,54.0,44.1,69,29.71,10.0,Calm,Calm,-,N/A,,Overcast,0,2013-06-23 16:53:00
9:53 AM,55.0,42.1,62,29.72,10.0,Calm,Calm,-,N/A,,Mostly Cloudy,0,2013-06-23 17:53:00
10:53 AM,55.0,42.1,62,29.71,10.0,ESE,3.5,-,N/A,,Overcast,120,2013-06-23 18:53:00
11:53 AM,55.9,42.1,60,29.71,10.0,Calm,Calm,-,N/A,,Overcast,0,2013-06-23 19:53:00
12:53 PM,55.9,42.1,60,29.71,10.0,Calm,Calm,-,N/A,,Mostly Cloudy,0,2013-06-23 20:53:00
1:53 PM,57.9,42.1,56,29.71,10.0,Calm,Calm,-,N/A,,Overcast,0,2013-06-23 21:53:00
2:53 PM,57.0,42.1,57,29.71,10.0,SW,5.8,-,N/A,,Overcast,220,2013-06-23 22:53:00
3:53 PM,57.0,41.0,55,29.70,10.0,SW,3.5,-,N/A,,Overcast,220,2013-06-23 23:53:00
4:53 PM,57.0,41.0,55,29.70,10.0,SW,3.5,-,N/A,,Overcast,220,2013-06-24 00:53:00
5:53 PM,57.0,41.0,55,29.70,10.0,SW,3.5,-,N/A,,Mostly Cloudy,230,2013-06-24 01:53:00
6:53 PM,57.0,41.0,55,29.69,10.0,WSW,3.5,-,N/A,,Overcast,250,2013-06-24 02:53:00
7:53 PM,55.9,42.1,60,29.68,10.0,West,5.8,-,N/A,,Overcast,270,2013-06-24 03:53:00
8:53 PM,55.9,42.1,60,29.68,10.0,WSW,4.6,-,N/A,,Mostly Cloudy,250,2013-06-24 04:53:00
9:53 PM,54.0,46.0,75,29.67,10.0,West,5.8,-,N/A,,Overcast,260,2013-06-24 05:53:00
10:53 PM,51.1,46.9,86,29.67,9.0,SW,9.2,-,N/A,,Overcast,230,2013-06-24 06:53:00
11:53 PM,50.0,46.0,86,29.68,10.0,WSW,6.9,-,N/A,,Overcast,250,2013-06-24 07:53:00